Location: Holyhead Bay
(53.3667°N, 4.6667°W)
Time: 19:38:05
(UTC+00:00)

H-2A R/B - Pass Details

Date: 24 November 2020
Orbit: 733 x 837 km, 98.2° (Epoch: 16 January)

Event Time Altitude Azimuth Distance (km) Brightness Sun altitude
Exits shadow 17:52:40 12° 117° (ESE) 2,272 4.0 -14.6°
Maximum altitude 17:56:51 30° 60° (ENE) 1,397 2.8 -15.2°
Drops below altitude 10° 18:01:19 10° 1° (N) 2,352 4.4 -15.9°
Sets 18:03:50 0° 351° (N) 3,267 5.2 -16.3°
